RH
80 85 81 83 84 89 95 91 92 91 91 95 95 97 82 77 82 74 72 69 66 63 54 51 51 54 59 64 72 80 78 73 75 74 74 63 54 60 62 65 66 67 70 67 69 72 70 71 72 72 70 72 72 73 72 66 59 54 60 66 68 71 73 75 75 72 69 70 73 71 71 75 75 75 77 79 78 73 71 72 72 74 77 76 76 75 74 76 78 79 78 76 76 76 77 77 77
74 80 79 79 83 90 93 91 94 93 95 95 92 93 78 75 80 72 72 71 68 63 54 52 56 60 60 61 65 69 77 80 75 70 68 59 57 62 60 62 64 64 63 61 66 67 68 70 70 70 70 76 77 73 71 70 65 64 72 75 74 75 74 76 76 75 74 75 76 73 74 77 76 75 77 77 77 74 73 73 74 75 76 75 77 78 75 76 77 78 77 77 77 76 77 78 78
64 75 78 77 82 89 91 92 95 93 94 94 90 89 80 78 80 75 74 71 69 64 59 59 64 68 64 68 69 71 86 84 70 66 65 60 58 60 61 63 62 61 57 58 67 68 68 67 67 71 73 77 75 70 71 73 71 72 77 77 77 76 76 76 77 77 77 79 80 78 78 81 77 75 75 76 77 75 74 74 76 77 76 76 78 79 77 77 78 77 76 76 78 77 76 78 77
62 74 78 80 83 90 96 96 98 96 93 94 86 81 85 79 73 74 70 65 65 60 59 62 68 68 67 77 77 79 92 83 68 63 62 61 53 53 61 62 58 57 58 62 67 66 64 65 70 75 77 77 75 74 76 75 73 74 76 77 76 75 76 75 78 79 81 85 84 80 79 81 79 75 75 76 77 74 75 74 73 77 81 82 80 80 80 81 79 75 75 77 79 78 76 76 75
71 78 82 88 90 94 97 96 99 96 90 93 82 77 88 78 68 73 66 60 58 56 57 61 71 69 66 77 79 84 88 77 70 59 58 63 54 53 60 58 55 57 64 68 67 63 63 72 77 78 79 78 76 76 77 76 76 76 77 79 76 76 75 73 80 82 81 82 80 81 80 82 80 76 74 74 75 74 74 72 71 73 79 84 81 79 81 83 81 76 76 78 79 78 76 74 73
71 81 89 92 92 92 95 95 96 93 89 92 81 75 83 73 69 70 62 59 56 55 56 59 67 66 72 80 79 84 80 68 66 59 58 64 57 55 57 55 56 59 66 68 65 63 68 76 76 76 77 74 74 74 75 77 80 80 78 78 76 79 77 75 83 80 78 78 76 81 81 80 79 74 73 71 72 72 73 73 72 72 75 80 81 81 81 84 80 77 78 77 77 76 74 72 72
67 87 93 92 90 90 97 96 96 94 86 89 88 78 74 69 65 63 61 60 59 57 56 58 56 62 79 80 79 83 76 65 61 60 58 59 57 54 54 56 58 59 62 63 64 68 71 74 75 77 75 73 73 72 74 77 81 81 80 79 76 81 82 82 83 76 78 81 78 81 80 78 74 70 70 70 71 73 75 75 75 75 73 75 80 82 82 83 80 77 77 77 76 74 72 71 72
76 90 90 93 95 93 99 97 95 94 84 88 97 84 67 63 57 59 65 60 61 61 59 62 53 65 84 78 86 88 74 67 62 62 57 56 57 54 57 59 55 52 56 62 67 71 73 74 76 76 73 73 73 71 73 77 79 79 81 80 76 78 83 86 81 77 82 82 80 81 79 76 71 68 69 71 72 73 74 74 74 76 74 72 77 80 80 82 79 76 76 75 74 72 71 72 74
83 88 90 94 98 96 98 96 92 92 92 92 95 83 66 61 54 60 69 64 63 63 64 64 55 70 87 83 90 89 77 72 64 61 57 58 59 59 64 58 48 49 58 67 72 75 74 76 78 76 74 74 73 71 72 75 76 76 79 80 79 76 80 89 84 80 84 81 80 80 77 74 71 70 71 72 72 70 70 71 70 71 72 72 75 77 78 78 76 73 74 75 73 70 69 72 77
83 87 92 94 97 98 96 97 93 92 97 95 91 82 68 60 58 61 67 69 65 67 68 62 64 77 87 90 92 87 80 72 62 61 62 63 64 67 67 55 51 55 66 74 79 80 78 80 79 76 76 75 73 73 74 75 75 74 77 81 83 77 77 88 85 77 77 75 74 75 74 73 72 74 75 73 72 70 71 70 67 66 68 71 74 75 76 75 72 68 69 72 69 67 68 73 77
88 88 89 94 98 98 97 99 94 89 94 94 84 76 69 60 61 65 67 71 67 71 71 65 77 84 86 91 93 87 78 71 65 68 72 70 69 68 61 54 59 65 72 79 81 82 81 81 79 76 76 76 74 75 77 76 76 75 76 80 81 77 75 84 84 75 72 69 68 71 73 74 74 76 73 69 70 72 73 71 69 67 65 67 69 70 72 71 70 65 63 66 63 62 67 72 74
92 96 91 97 100 98 98 98 92 87 93 93 80 72 69 59 63 71 71 73 71 73 69 68 78 79 86 93 94 89 80 78 74 75 78 74 71 66 57 56 64 70 75 77 77 81 81 79 78 78 77 77 77 78 80 80 79 75 75 80 78 76 77 82 84 78 75 70 67 71 73 71 70 73 71 69 72 74 73 72 70 66 64 65 64 63 64 66 69 61 57 60 59 62 68 71 74
90 98 94 98 99 99 96 94 91 87 92 92 83 75 67 59 65 70 69 72 72 73 67 66 70 72 87 93 94 92 86 86 81 81 80 75 72 63 58 61 67 70 73 73 74 80 81 80 79 80 79 78 80 80 82 82 79 75 77 79 77 76 77 80 81 81 79 72 66 67 69 66 66 72 75 75 76 73 70 69 66 64 61 57 53 49 48 53 60 56 53 56 58 63 66 68 72
84 90 92 99 97 98 96 93 92 88 91 92 84 74 66 64 66 63 65 74 72 70 69 67 67 73 89 93 94 94 89 89 87 86 82 80 77 64 60 64 68 71 75 75 75 78 80 82 81 80 80 78 78 81 84 84 80 78 79 79 78 77 78 79 80 81 81 77 72 70 69 68 71 76 77 77 74 70 69 67 64 59 50 43 42 41 39 42 49 50 52 55 57 61 63 65 69
79 82 91 100 97 97 96 94 89 83 89 91 82 71 66 66 65 62 62 71 73 68 68 68 65 70 85 90 91 92 90 90 91 89 84 85 80 69 66 68 73 76 77 75 74 77 78 79 76 77 78 75 78 84 88 86 82 81 79 79 78 78 79 79 79 81 83 83 81 80 78 76 78 78 77 76 72 69 70 67 62 52 40 37 40 40 41 43 47 50 52 53 54 58 63 67 70
76 78 92 99 96 96 96 94 88 83 88 88 78 68 67 65 62 64 61 61 69 69 66 67 63 65 77 81 84 88 88 91 93 90 86 87 82 75 74 76 77 75 73 72 72 74 75 73 72 75 76 76 80 84 88 85 83 83 81 80 79 80 82 79 79 78 78 81 82 82 79 76 77 77 76 76 71 71 69 64 57 46 37 37 40 41 44 45 47 48 47 48 53 60 66 69 71
77 78 94 99 96 97 96 93 88 87 91 87 77 69 68 68 64 64 62 58 63 67 64 66 65 65 74 78 82 86 87 91 94 91 88 90 87 82 82 80 74 71 70 70 70 71 71 71 72 76 76 78 82 83 86 86 85 85 83 84 82 80 82 81 79 78 78 81 80 77 74 72 74 76 76 73 70 69 65 61 54 44 38 36 37 39 40 40 41 41 44 50 58 65 69 71 74
79 86 96 98 98 98 90 85 85 85 86 86 79 70 66 69 69 63 63 63 62 64 64 67 69 70 75 79 82 84 85 89 90 86 86 90 88 84 86 81 71 69 69 69 71 71 72 73 75 78 77 80 83 83 85 86 87 85 83 83 81 79 81 82 80 80 82 80 76 72 70 69 70 72 70 66 65 63 59 56 51 46 42 38 37 38 39 40 41 43 49 57 63 67 70 73 75
81 93 100 96 94 92 82 77 83 80 78 85 82 67 62 67 67 61 66 69 63 66 68 67 71 74 77 79 81 83 84 85 84 80 80 85 82 77 80 78 70 68 69 70 72 74 76 76 76 78 77 79 81 82 83 85 85 83 83 82 80 82 83 82 80 80 78 73 70 69 68 67 65 65 61 59 59 55 52 49 47 46 45 43 43 45 49 52 52 53 57 61 64 66 69 73 74
78 86 99 95 87 87 81 76 79 75 73 84 82 66 60 66 64 60 67 71 67 69 70 69 74 78 80 81 81 83 82 81 80 77 77 80 77 71 70 70 68 67 69 71 73 77 80 76 74 78 79 79 81 81 81 82 81 79 81 81 81 82 81 80 78 75 72 69 68 67 65 61 58 59 57 56 56 52 50 47 45 46 45 46 48 53 59 63 63 62 62 63 64 65 67 70 71
77 80 90 90 85 88 87 78 74 72 71 79 79 69 65 66 63 60 64 71 73 69 66 69 74 78 81 82 81 81 80 79 79 76 75 77 76 71 68 69 68 68 69 72 76 78 79 74 72 78 80 81 82 81 80 80 78 77 77 77 77 76 75 75 74 72 69 67 65 62 58 54 54 55 54 54 56 56 56 54 53 53 53 52 54 59 64 67 69 69 68 67 66 67 67 68 69
78 79 80 82 84 90 90 78 75 75 72 78 79 72 68 67 65 60 60 69 72 65 64 67 70 74 78 80 80 80 78 78 78 75 74 74 73 73 72 71 70 69 70 73 76 77 76 74 75 80 79 80 80 79 80 78 75 74 74 74 74 73 70 68 69 67 63 60 57 55 53 53 54 53 54 56 58 62 64 65 64 64 64 62 63 65 67 68 70 72 72 71 71 70 68 68 68
74 79 76 79 83 87 90 78 77 79 76 83 80 69 67 71 71 61 56 62 63 61 64 66 68 72 74 77 77 78 78 75 74 73 72 71 71 73 73 69 67 69 71 74 77 78 78 76 77 79 75 75 77 77 77 74 72 71 71 73 74 70 64 61 61 58 55 54 53 54 54 54 54 54 55 58 63 68 71 71 69 68 67 65 66 66 67 68 69 71 72 73 72 70 67 65 65
70 81 79 79 83 87 90 78 76 79 79 82 75 70 74 76 73 63 56 56 58 60 64 66 68 70 72 75 73 73 73 70 69 70 69 68 69 72 71 67 66 68 71 74 80 81 79 77 77 75 72 72 74 74 73 71 70 69 69 69 68 63 58 55 54 52 51 52 54 55 55 53 53 54 58 64 72 76 76 74 71 68 65 63 64 65 67 69 69 70 71 70 67 65 62 61 61
71 83 86 83 89 92 91 81 78 81 82 80 74 79 84 81 74 65 58 55 57 61 64 67 68 70 70 71 70 67 68 67 67 70 71 69 70 71 72 70 67 67 68 72 78 79 78 77 74 70 68 69 70 70 69 69 69 68 69 66 62 58 56 54 53 51 50 52 56 56 54 52 53 55 62 72 77 78 78 77 75 72 68 67 67 66 68 69 67 68 68 65 63 61 59 57 58
73 85 92 90 96 97 91 86 84 85 85 78 76 86 87 84 79 67 60 55 58 61 64 67 67 70 70 67 67 63 64 68 68 71 72 69 70 70 72 72 68 65 65 69 73 73 75 76 73 70 68 67 68 68 68 69 68 68 68 64 60 57 55 54 53 53 51 53 56 56 57 58 59 61 66 72 76 76 77 78 78 77 74 73 71 67 66 66 65 65 66 66 65 62 58 57 57
79 91 95 94 99 99 93 92 91 89 91 81 79 92 85 79 81 74 65 56 58 62 63 66 66 69 68 65 64 59 61 66 67 71 72 70 69 68 70 71 68 65 65 67 70 70 72 73 71 70 69 67 66 67 68 68 66 65 64 61 56 55 54 54 53 52 52 54 58 62 67 71 70 68 68 71 74 76 78 79 79 79 77 76 74 68 65 64 65 66 68 68 66 62 59 57 57
86 91 94 96 95 98 96 95 96 89 93 87 79 90 84 77 83 76 65 59 59 61 62 63 64 65 64 63 61 59 61 63 67 70 71 71 69 68 67 66 65 64 64 65 68 69 68 69 69 68 68 67 64 66 67 67 65 62 60 57 52 53 57 57 55 54 55 57 64 71 77 80 80 77 74 73 75 76 77 77 76 76 76 77 74 68 64 64 66 68 69 67 65 63 59 55 55
84 85 92 98 90 94 96 95 98 90 94 91 78 88 90 85 87 73 61 61 60 60 61 60 60 61 60 62 62 61 62 63 67 67 69 71 69 68 65 63 62 60 63 66 68 70 67 65 66 65 65 64 64 65 67 68 67 62 59 56 55 61 64 62 61 64 65 67 71 77 82 84 84 81 78 76 76 74 72 72 73 73 73 75 74 69 65 64 66 69 68 67 67 64 57 52 54
82 83 88 98 93 96 96 95 99 93 99 95 82 92 96 91 85 69 61 61 60 61 61 59 58 57 56 59 60 62 62 63 65 64 67 70 70 69 64 63 62 58 63 67 69 71 66 64 65 63 61 61 63 65 67 69 68 65 63 62 66 72 71 69 72 73 73 74 76 79 83 85 85 83 81 79 77 76 74 71 71 72 70 70 71 71 67 64 67 69 69 68 66 61 54 51 52
90 83 84 96 98 99 96 94 98 95 101 97 87 95 97 92 82 69 63 61 60 61 60 58 57 55 55 56 55 58 61 60 61 62 65 68 69 69 64 63 63 60 62 65 69 71 68 66 65 63 61 62 63 64 66 68 67 67 68 70 75 78 76 76 77 76 75 76 78 80 83 85 86 85 83 80 78 80 79 74 74 75 73 69 68 69 67 66 68 69 68 65 61 56 54 53 51
96 83 84 97 97 99 95 91 95 96 98 96 91 94 95 90 79 69 65 60 59 60 59 58 56 55 54 54 53 55 60 60 58 60 65 66 67 69 65 63 63 61 60 64 68 70 71 70 69 67 66 68 68 65 66 70 71 69 69 71 74 75 74 75 74 74 75 76 77 79 82 84 83 82 81 80 79 79 77 75 79 80 77 71 67 67 67 68 68 66 64 60 56 55 56 55 52
94 85 89 99 98 99 96 89 92 95 95 95 93 94 95 89 77 69 65 60 59 59 59 57 55 54 53 52 51 53 59 61 59 61 64 64 66 69 68 64 62 62 60 63 65 68 72 74 76 75 72 74 75 69 68 75 78 74 71 69 71 73 73 75 75 73 73 73 72 73 77 81 79 76 76 77 77 77 74 75 79 78 76 72 68 68 68 67 65 63 60 57 56 55 55 54 53
92 92 95 98 97 96 97 92 89 92 92 92 94 93 91 85 76 71 65 59 58 59 58 56 55 53 51 50 49 52 59 60 59 62 63 62 64 69 70 66 62 62 61 62 64 67 72 76 80 80 78 80 79 75 74 79 82 79 77 75 74 74 73 76 78 76 75 74 71 71 75 79 78 74 75 77 76 76 75 74 75 75 73 72 70 69 68 66 63 61 58 55 55 54 52 54 54
80 89 97 97 96 92 94 96 91 92 92 92 95 94 90 82 75 75 73 63 56 58 57 54 53 51 49 47 49 55 60 58 57 62 62 60 63 68 70 67 64 64 62 64 69 71 73 78 81 81 81 83 80 79 80 82 83 82 81 80 79 76 72 74 77 78 79 78 76 75 75 77 78 76 77 77 73 72 73 73 74 74 73 71 69 68 67 65 62 60 57 54 53 52 51 53 54
71 80 92 94 98 93 92 95 93 93 93 95 95 93 92 87 82 84 83 74 60 55 55 52 51 49 46 46 51 59 59 56 57 60 59 59 63 67 69 68 66 66 66 67 71 74 74 75 79 81 81 81 80 80 81 83 84 83 81 80 78 76 72 70 71 74 76 76 76 74 72 74 75 77 79 75 69 69 70 71 73 74 72 69 67 67 66 64 62 60 57 55 53 53 53 51 53
73 80 93 95 97 97 93 94 94 95 94 96 93 90 91 88 90 87 80 77 65 54 53 50 48 47 44 46 52 57 56 55 59 60 57 58 62 65 68 70 70 71 71 71 70 71 73 71 73 79 79 78 79 79 80 82 81 81 79 77 76 76 73 68 66 67 70 72 72 68 67 72 76 77 78 74 69 68 67 68 70 71 70 68 66 66 66 63 62 61 58 56 55 55 53 51 51
75 84 97 97 97 97 95 92 93 95 96 97 91 90 93 90 92 87 80 81 67 53 52 48 46 45 42 46 51 53 54 56 61 62 60 60 62 66 68 70 73 73 73 72 68 67 72 71 70 75 76 74 76 78 79 79 78 77 76 75 76 77 74 70 65 66 69 70 67 65 65 70 76 77 76 76 73 67 65 66 68 71 72 68 65 65 64 62 63 62 58 55 54 54 54 53 53
77 89 96 96 98 96 96 94 92 93 97 98 91 92 97 94 93 88 86 87 72 58 55 46 44 44 42 45 50 52 54 57 61 62 63 61 62 66 68 69 72 73 72 72 70 69 73 75 74 77 78 75 75 77 78 79 79 77 75 75 76 76 74 73 73 74 75 70 64 64 65 68 74 77 77 76 74 69 66 67 69 72 72 67 64 63 62 61 63 63 59 56 54 54 54 54 54
79 91 93 96 99 95 97 98 94 93 95 95 92 94 98 96 95 90 86 86 75 65 60 49 42 42 41 43 47 51 53 56 60 62 63 61 63 66 68 69 71 73 73 75 75 73 72 72 74 78 80 79 76 77 79 78 79 78 76 76 75 75 75 76 79 80 79 73 66 63 64 66 72 78 79 76 76 73 69 70 70 70 68 64 63 63 62 63 64 63 60 57 54 53 54 55 55
77 83 86 96 98 93 95 95 93 93 93 92 92 96 97 94 95 92 88 86 78 69 64 55 44 40 39 40 45 48 49 54 58 61 63 62 63 65 66 68 70 72 73 75 76 74 71 69 70 73 78 80 75 74 77 76 77 78 78 78 76 76 77 78 81 81 80 77 69 62 62 64 69 76 76 73 77 75 70 72 71 67 65 63 62 63 63 64 64 63 61 58 55 52 55 57 57
80 76 76 87 91 94 97 93 93 97 97 94 93 96 96 94 94 93 91 90 83 74 70 62 49 44 41 40 44 45 45 50 55 57 60 61 62 64 66 67 69 71 71 73 74 73 72 71 70 70 75 78 72 70 74 76 77 78 78 78 76 76 78 77 78 78 77 75 68 61 61 63 66 71 70 69 73 75 72 71 68 65 64 63 63 64 65 64 64 64 64 61 58 54 55 58 58
85 75 69 79 88 96 98 93 93 98 100 95 94 96 96 97 95 91 91 92 85 78 77 70 56 48 44 41 42 42 42 48 54 55 56 57 61 64 65 66 67 68 69 71 72 72 72 69 69 68 70 73 71 69 73 75 78 78 76 76 75 76 76 75 75 73 73 73 68 63 62 63 65 67 67 67 70 72 72 72 69 64 63 63 63 67 68 66 65 66 66 64 61 56 55 57 57
79 72 72 84 92 95 93 92 96 98 97 96 95 94 95 99 94 88 89 91 88 83 79 75 65 53 46 42 41 40 41 46 54 57 56 56 58 61 63 64 64 64 67 70 70 72 70 68 70 68 66 70 70 68 70 73 74 75 75 74 73 74 75 74 72 71 75 75 68 64 64 63 65 64 65 68 68 67 69 72 70 65 63 64 65 68 71 69 67 67 66 65 63 61 59 60 59
77 72 76 83 86 88 87 92 100 97 94 98 98 93 93 95 93 90 91 92 91 87 79 75 72 61 49 44 42 41 39 43 52 56 56 56 57 58 58 59 60 61 65 67 68 70 68 67 72 70 64 65 67 66 67 70 71 72 72 74 74 75 78 77 72 73 76 73 67 66 65 64 65 64 66 70 68 63 65 68 68 65 63 64 66 67 68 68 67 66 64 64 64 63 63 64 63
77 67 70 75 77 83 88 94 99 94 94 98 96 93 93 94 96 97 96 95 90 85 79 72 71 65 54 46 43 42 40 43 50 53 54 55 55 55 55 57 58 59 62 64 65 68 67 67 72 73 65 59 62 65 67 71 72 71 71 72 73 75 79 79 74 75 76 74 69 66 63 62 65 66 66 70 69 64 63 65 66 66 64 63 63 65 66 67 66 63 61 60 61 63 64 65 64
67 65 70 73 79 87 92 98 96 91 96 95 87 89 92 91 94 96 95 90 81 78 77 71 69 66 58 50 44 42 43 46 50 53 54 54 53 54 55 57 57 57 61 63 64 66 66 67 71 74 67 58 59 63 68 74 74 72 72 71 70 72 76 77 75 74 74 75 73 67 62 60 64 70 68 69 71 66 64 65 65 64 64 63 62 65 68 68 66 64 60 55 56 60 65 66 66
63 68 69 71 86 93 93 97 94 90 95 94 87 88 91 91 91 93 90 79 70 70 70 68 68 67 60 53 47 43 43 47 51 54 55 56 56 57 57 58 58 58 61 63 64 65 66 67 68 70 68 60 59 63 69 74 74 73 73 72 70 71 73 74 73 71 69 71 73 72 70 64 63 69 70 69 69 67 66 66 64 62 62 64 64 64 67 67 66 65 60 54 54 57 61 64 66
62 68 70 77 92 96 95 98 93 91 96 94 90 88 91 93 88 87 85 76 69 66 62 61 63 63 59 54 49 44 43 47 52 54 56 58 58 58 58 59 60 60 60 61 63 64 66 66 65 64 65 61 59 64 70 74 74 72 71 72 70 69 72 71 70 69 66 67 72 75 75 68 62 64 67 67 64 64 65 64 63 62 61 63 63 63 67 70 69 66 59 53 53 56 58 58 59
61 61 67 80 95 97 99 99 89 90 95 93 91 90 93 95 86 82 79 73 70 67 60 57 57 57 54 52 51 48 43 45 51 55 56 57 58 57 57 58 60 59 59 60 62 64 64 65 64 61 61 61 60 63 69 71 71 70 69 71 69 68 71 71 68 69 68 67 70 73 72 69 65 60 61 63 61 61 64 62 62 62 62 62 64 67 71 71 69 68 63 58 58 60 58 56 54
57 51 54 65 80 87 92 96 93 94 97 95 94 91 93 96 93 86 75 64 64 68 65 58 55 54 51 50 53 52 47 43 48 54 55 55 55 55 55 57 58 57 58 60 62 63 63 63 63 61 58 59 59 62 67 68 68 69 69 70 71 69 70 70 69 70 69 69 71 72 70 70 69 63 61 64 63 61 61 61 61 61 63 65 68 72 72 68 65 66 66 66 69 67 63 62 59
52 42 49 54 62 72 82 88 90 93 98 97 96 93 92 92 92 87 76 65 62 67 69 64 59 56 55 55 54 54 51 44 43 50 54 55 54 53 53 54 55 54 57 60 62 64 63 59 59 60 59 59 57 58 63 66 67 68 66 68 72 70 68 68 69 71 71 70 72 71 68 68 69 66 67 69 66 63 62 62 60 60 63 67 69 70 71 67 64 64 64 68 72 69 64 65 64
49 44 51 49 46 59 78 86 82 82 85 86 89 94 92 87 86 86 80 71 66 65 67 67 64 59 58 60 56 54 53 46 41 44 49 54 55 53 53 52 52 52 55 59 61 63 62 58 57 60 64 65 61 56 57 62 65 65 63 65 70 70 68 67 68 70 72 71 71 70 67 67 67 65 69 72 70 69 68 67 64 63 63 65 67 66 66 64 63 63 62 64 68 65 60 59 61
45 50 48 41 39 47 67 85 86 80 78 80 87 94 91 86 88 91 85 74 68 65 64 63 64 62 61 62 58 53 52 49 44 41 43 50 53 54 54 51 49 48 50 55 57 59 61 60 59 62 66 69 65 56 52 55 59 61 61 62 65 68 70 70 69 70 72 71 67 65 66 67 64 61 65 70 71 72 73 72 71 69 66 65 66 64 62 60 60 61 61 62 64 62 59 57 57
32 41 35 40 52 51 53 68 79 79 80 84 87 89 90 87 88 94 89 75 67 65 66 64 62 62 62 63 61 55 52 51 50 44 41 45 50 53 53 51 48 46 47 49 51 57 61 60 61 63 65 67 65 58 50 50 54 57 60 61 61 65 70 72 71 70 71 70 65 63 66 68 64 61 64 66 69 73 74 72 73 73 70 66 64 62 61 60 60 61 62 63 63 61 61 60 59
20 24 22 34 52 52 48 54 63 74 81 82 79 81 85 79 79 89 88 74 64 64 67 67 64 62 60 62 62 58 54 53 53 50 44 42 44 48 51 50 48 46 46 48 52 57 59 59 60 63 64 65 66 59 50 48 51 53 58 61 61 62 68 71 71 71 70 67 63 63 67 69 67 68 70 70 73 76 75 73 74 74 71 67 66 65 64 63 62 62 62 63 63 62 61 61 60
19 18 19 27 36 40 44 46 53 70 82 80 75 79 80 70 69 80 83 73 63 61 65 65 62 61 60 61 62 61 59 55 53 52 48 45 42 44 49 48 46 46 46 48 52 56 58 58 58 60 63 65 66 61 52 47 49 51 54 59 61 61 65 68 69 70 68 65 65 66 69 72 73 75 77 75 76 76 74 73 73 72 69 69 70 71 69 65 62 61 61 62 63 63 61 62 64
19 23 26 28 33 40 49 50 49 62 77 76 73 77 74 69 70 72 75 76 67 62 66 66 63 63 62 62 59 58 60 59 56 54 52 50 46 44 48 50 48 48 47 48 53 55 57 58 57 59 61 63 65 64 56 48 48 49 50 54 58 59 61 66 68 67 65 65 69 71 73 76 76 77 78 76 76 75 73 73 73 71 70 67 69 74 74 70 68 66 63 62 62 61 61 66 70
Wind_Speed
3 2 2 3 5 6 5 3 1 1 2 3 1 1 1 2 1 2 5 5 3 4 10 16 24 19 7 7 10 10 8 6 4 2 4 11 21 21 19 19 17 16 14 14 13 12 11 9 9 9 9 9 9 9 9 9 9 10 10 10 11 11 11 12 12 13 13 13 13 13 13 12 12 13 13 14 14 14 14 14 14 14 13 14 14 15 13 14 14 14 15 15 15 15 15 15 15
2 1 3 4 5 4 3 2 2 2 3 3 1 0 1 2 1 3 5 4 3 8 15 21 20 12 10 14 16 13 7 2 3 7 14 22 25 21 20 19 16 16 15 14 13 11 10 9 8 9 10 9 9 9 8 8 9 10 11 10 10 10 11 11 12 12 13 13 13 13 13 13 13 13 13 14 14 14 14 14 13 13 13 13 13 14 13 14 14 14 15 15 15 14 14 15 14
3 4 5 6 4 3 3 2 2 2 3 4 1 2 1 1 1 3 5 8 14 22 23 21 15 11 14 13 8 7 3 2 11 19 24 26 25 23 20 17 16 15 14 14 12 11 10 9 9 9 9 9 8 8 8 8 8 10 10 10 10 10 10 11 11 12 12 13 14 13 13 14 14 13 13 13 14 13 13 13 12 12 12 13 12 13 13 13 14 14 14 14 14 14 14 14 14
4 5 6 7 4 3 2 1 1 3 4 4 2 1 0 2 3 4 11 18 21 25 21 14 9 7 9 9 5 5 5 9 20 25 27 25 23 23 20 17 16 14 13 12 12 11 10 10 10 9 8 8 8 8 8 8 9 10 10 10 10 10 10 11 11 11 11 12 13 13 13 14 14 13 13 14 13 13 13 12 12 11 12 12 12 12 13 13 14 14 14 14 13 13 14 14 14
4 6 6 6 4 2 1 1 1 3 3 3 3 2 2 3 6 6 11 16 15 17 17 11 6 6 9 7 2 4 9 16 21 24 26 24 21 21 20 18 16 14 12 11 11 10 10 10 9 9 8 7 7 8 8 9 9 10 10 10 10 10 10 11 11 11 11 11 11 12 13 14 14 13 13 13 13 13 13 12 12 11 10 11 12 12 12 12 13 14 14 13 13 13 13 13 13
4 5 5 4 3 2 1 2 2 2 1 2 3 2 2 3 6 8 11 13 12 15 16 13 11 12 10 7 5 9 12 17 21 23 25 24 21 20 18 17 14 13 12 11 11 10 10 9 8 8 7 7 7 7 8 9 9 9 9 10 10 10 10 10 10 11 11 11 11 12 13 14 13 13 13 13 13 13 12 12 12 11 10 10 12 12 12 12 12 13 13 12 12 13 13 13 12
5 4 2 2 2 2 1 3 3 1 1 1 2 3 4 5 11 14 12 12 11 12 15 17 20 16 7 6 9 9 7 14 22 24 25 24 21 19 17 16 14 13 12 12 12 11 10 9 8 7 7 7 7 8 8 8 9 9 9 9 10 9 10 11 11 11 11 11 11 12 13 13 13 12 13 13 13 13 12 11 11 11 11 10 11 12 12 12 12 12 13 12 12 13 12 12 11
4 3 2 1 1 1 2 3 1 1 0 1 0 3 5 9 16 14 7 9 7 8 15 17 21 16 3 4 8 6 8 15 22 23 24 23 21 19 17 16 15 14 14 13 13 11 10 9 8 7 7 7 7 8 8 8 8 9 9 9 10 9 9 11 12 11 11 12 11 13 13 14 13 13 13 13 13 12 11 10 10 10 10 11 10 11 11 12 12 12 12 12 13 12 11 11 12
0 3 2 0 1 2 2 3 1 1 1 1 2 2 4 8 13 13 7 8 9 10 13 12 13 13 6 9 11 8 11 16 22 23 23 22 19 18 16 15 14 14 15 14 13 12 10 9 8 7 6 7 7 7 7 8 9 10 9 9 10 10 9 10 12 11 11 12 12 13 13 14 14 13 13 13 13 12 11 9 9 9 10 11 11 11 11 12 12 12 12 12 13 11 10 11 12
4 3 2 0 2 2 2 2 1 0 1 2 2 2 3 5 11 16 12 9 13 13 9 10 10 14 14 12 11 9 14 19 23 23 21 19 17 16 15 14 12 13 14 14 13 11 9 8 7 6 6 6 6 6 7 7 9 10 10 9 9 9 9 9 12 11 11 11 12 13 13 14 14 14 14 13 13 12 11 10 10 10 10 11 11 11 11 11 12 12 12 13 12 10 10 11 11
4 2 2 1 3 2 2 1 1 0 2 3 2 4 3 11 16 15 15 11 13 16 13 12 12 20 18 10 10 11 18 22 22 22 19 17 16 15 14 13 12 12 13 13 12 10 9 8 7 6 6 6 6 7 7 7 9 10 10 9 9 9 9 10 11 11 11 11 11 13 14 15 15 15 15 14 13 13 12 12 11 10 10 10 10 11 11 11 11 11 12 12 12 10 10 10 10
3 3 2 2 2 1 1 2 3 1 3 2 3 6 7 19 18 11 15 13 14 18 14 9 14 21 13 6 12 16 20 21 20 21 18 16 15 15 14 13 13 11 12 12 11 10 9 8 8 7 7 6 7 7 7 8 9 10 10 10 10 10 9 9 10 12 11 11 12 13 15 15 16 16 15 15 14 13 13 12 11 9 9 10 10 11 11 12 12 12 12 12 11 11 11 10 9
1 2 2 2 1 1 1 2 3 2 3 1 2 4 10 17 17 16 16 17 16 13 6 11 21 19 10 9 16 19 21 19 18 18 16 16 15 15 14 13 13 12 11 11 11 11 9 9 8 8 8 8 8 8 8 9 10 11 11 10 10 10 10 9 10 12 12 12 13 14 16 16 17 17 16 15 14 14 13 12 11 10 10 11 11 11 12 12 12 12 12 12 11 11 10 9 9
2 1 1 1 0 0 1 2 3 3 1 1 2 3 8 9 16 25 23 14 5 8 11 18 25 17 12 13 16 21 21 19 19 17 16 16 14 14 14 13 12 11 11 10 11 10 10 10 10 9 9 9 9 9 10 10 10 11 11 11 10 10 10 10 10 11 12 13 14 15 17 17 17 17 16 14 14 14 13 12 11 11 12 13 14 14 14 14 14 13 12 11 11 10 10 11 11
5 1 2 1 1 1 0 1 2 4 2 0 2 4 10 10 17 24 25 14 3 15 21 20 18 11 14 14 15 25 23 21 22 18 17 15 14 13 13 13 12 11 10 10 10 10 10 10 9 8 8 9 10 10 10 11 11 10 11 11 11 11 11 11 11 11 13 13 14 16 17 17 18 17 16 14 14 14 13 13 13 14 15 16 16 16 16 16 15 14 12 11 11 11 12 12 12
9 2 3 1 1 1 1 1 2 3 2 1 3 8 13 12 15 13 15 18 17 19 18 18 10 2 17 20 22 29 25 24 24 20 18 16 15 14 13 13 12 11 11 11 10 10 10 9 8 8 9 11 11 10 11 12 12 12 12 12 11 11 12 12 12 12 14 14 15 16 17 18 18 17 15 14 14 14 14 14 15 16 17 17 17 17 17 16 15 14 13 12 12 13 13 12 11
9 3 2 1 1 2 3 3 3 3 2 2 5 8 10 8 9 9 13 23 24 16 11 14 7 8 22 23 26 28 26 28 25 22 20 18 17 16 15 14 14 13 12 12 11 11 10 9 9 9 12 12 12 11 11 13 13 13 13 13 13 12 13 14 14 14 15 15 16 17 17 18 18 17 15 14 14 14 15 16 17 18 18 18 18 18 17 16 15 14 14 13 13 13 12 11 9
7 3 1 2 3 3 4 5 3 3 3 4 5 9 13 9 7 15 17 17 21 15 12 14 10 16 21 23 28 28 28 30 26 24 21 20 18 17 16 14 14 14 13 13 12 12 11 10 10 11 13 13 13 12 12 13 14 14 14 14 15 14 14 15 16 16 15 15 16 17 17 18 17 16 15 15 15 16 17 17 18 18 18 19 19 19 18 17 15 14 14 13 12 12 11 9 7
8 2 1 3 3 3 6 7 6 3 5 6 6 11 15 12 13 19 12 10 17 14 13 19 20 21 22 26 29 28 30 29 25 22 20 19 17 17 17 15 15 15 15 14 14 12 11 10 10 12 14 14 13 13 13 14 15 15 15 16 16 15 15 15 16 16 16 17 17 17 17 16 16 15 16 16 16 17 18 18 18 18 18 19 19 18 17 16 15 14 13 12 11 11 10 8 7
7 3 1 4 3 3 5 10 10 6 7 8 7 12 13 12 15 17 12 11 13 11 13 19 23 26 27 29 29 30 30 27 25 21 19 18 16 15 15 16 16 16 15 14 14 13 11 11 12 14 14 14 14 13 14 15 15 16 16 17 16 16 16 16 16 16 17 17 17 16 16 15 15 16 17 17 17 17 18 18 18 17 17 18 17 17 16 16 15 14 12 11 11 10 9 8 7
5 5 2 3 4 3 4 12 13 8 10 11 10 12 11 12 13 16 18 12 6 11 20 23 27 32 31 31 31 30 29 27 25 21 19 18 16 15 14 15 15 15 15 14 14 13 12 12 14 15 15 14 14 15 16 16 16 17 17 17 17 17 17 17 17 17 17 17 17 16 16 16 16 17 18 17 17 17 17 16 16 16 16 16 16 15 15 14 13 13 12 10 10 9 9 8 7
3 4 2 2 5 3 4 12 11 8 11 10 10 10 11 12 10 20 23 10 8 18 24 28 33 35 34 33 32 29 28 27 25 22 20 17 17 16 15 15 15 16 15 15 15 14 13 14 15 15 15 15 15 16 17 17 17 17 18 17 17 17 16 17 17 17 17 17 17 16 16 17 17 18 18 17 17 16 15 15 14 14 14 14 14 14 14 13 11 10 10 8 7 7 7 7 7
3 3 2 3 4 2 6 13 10 9 13 10 9 11 15 13 9 19 22 13 17 24 27 30 34 35 35 34 31 30 28 26 24 23 20 18 18 17 17 17 16 17 16 16 16 14 14 15 16 16 16 16 16 17 17 18 18 18 18 17 17 17 17 17 18 18 17 17 17 17 17 17 18 18 18 17 16 15 14 13 13 13 13 13 13 12 11 10 9 8 6 5 4 5 6 7 7
4 1 3 3 3 4 8 15 13 13 14 10 9 9 10 9 10 16 16 16 22 26 28 30 33 34 33 32 30 29 27 24 22 21 18 17 17 17 18 17 16 17 16 17 17 16 15 15 17 17 18 18 18 18 18 18 18 18 18 17 17 17 17 18 18 19 18 18 17 18 18 18 18 18 18 16 15 14 13 12 12 12 12 12 11 10 9 8 7 6 4 3 3 4 6 7 9
3 1 4 3 2 3 7 13 14 13 11 10 9 8 4 2 7 13 14 19 24 27 30 30 33 33 32 32 29 27 25 22 20 20 18 17 17 17 18 17 17 17 17 18 17 17 17 17 17 18 19 19 18 18 18 18 18 18 18 18 18 18 18 17 17 18 18 18 17 18 18 17 17 17 16 15 14 13 12 11 11 11 10 10 10 9 8 7 7 5 4 4 4 4 5 7 9
3 5 5 4 3 3 7 9 11 11 9 11 11 9 4 4 2 7 16 25 28 30 31 30 34 33 32 31 28 25 23 22 20 20 19 18 19 19 19 19 18 18 17 17 18 18 18 18 18 18 19 19 19 19 18 17 17 17 17 18 19 18 18 17 16 16 16 17 17 17 17 15 15 14 14 13 12 11 10 10 10 10 9 9 9 9 8 7 7 5 4 3 2 2 4 5 7
9 11 9 7 7 4 5 6 8 10 6 9 12 8 5 5 5 1 17 29 32 32 31 31 34 32 31 30 27 24 22 22 20 20 20 20 20 20 20 21 19 19 18 18 19 19 19 19 18 19 19 19 19 18 17 17 16 17 17 18 19 19 18 17 16 16 16 17 16 16 15 14 13 13 12 11 10 9 8 8 8 8 8 8 8 9 9 7 6 4 3 2 1 1 2 4 6
16 15 10 8 9 7 4 5 8 11 4 6 14 10 5 4 4 3 20 31 35 35 32 31 32 30 30 29 27 24 22 22 20 20 21 21 22 21 21 21 21 21 19 19 20 19 19 19 19 19 19 20 20 19 17 16 16 16 17 18 19 19 18 17 17 17 16 16 15 14 13 12 12 11 10 9 8 8 7 7 7 8 7 7 8 9 9 7 6 3 2 2 1 1 1 4 5
13 9 6 5 6 5 4 1 4 9 4 8 18 10 2 3 4 7 24 31 35 35 33 32 31 29 28 29 27 25 23 22 21 20 19 21 22 20 20 21 21 22 21 20 19 19 19 19 20 20 20 20 20 19 18 17 17 17 17 18 18 17 17 17 18 17 16 14 14 13 11 11 10 10 8 7 7 6 6 5 5 6 6 7 8 9 8 7 5 3 3 2 1 0 1 5 6
6 3 3 4 3 0 3 3 3 5 4 8 13 5 5 4 6 11 24 30 33 32 30 30 29 28 28 28 27 26 25 24 22 20 19 21 21 20 20 20 21 22 22 21 20 19 19 20 20 20 21 20 20 19 19 19 19 19 19 18 18 17 17 17 16 16 15 14 13 12 11 11 10 8 7 6 5 5 4 4 4 4 5 7 8 8 8 7 5 3 2 2 2 1 2 4 7
2 1 1 2 1 1 1 1 5 5 2 5 6 4 6 5 9 13 21 29 32 28 28 29 28 28 28 26 26 26 26 25 21 19 19 20 21 21 20 21 23 23 23 22 21 20 20 21 20 21 21 20 20 19 19 20 20 21 20 20 19 18 17 15 14 14 14 14 13 12 11 10 9 7 5 4 4 3 3 3 3 4 4 5 6 7 7 7 5 3 2 2 2 4 3 5 6
2 1 0 1 0 1 1 1 2 3 3 2 2 3 5 7 13 14 19 30 32 27 26 27 27 28 26 24 25 26 27 26 21 19 19 19 21 21 21 22 23 23 23 23 23 21 20 21 21 21 21 20 20 20 20 21 20 20 19 19 18 16 15 13 12 12 12 12 12 11 9 8 7 6 5 4 4 3 2 3 3 3 3 4 6 7 7 7 5 3 2 2 5 6 5 5 7
2 1 1 1 1 1 1 2 4 2 6 1 2 3 5 5 11 13 19 29 30 27 26 25 27 27 24 23 24 26 28 27 23 21 20 19 21 21 21 22 23 23 23 24 24 22 21 22 21 21 21 20 19 20 21 20 19 18 17 16 14 13 12 9 9 9 10 10 10 9 7 6 6 6 5 5 5 4 4 4 4 4 5 5 7 8 8 7 5 3 2 3 6 5 5 5 6
2 1 1 1 3 2 3 1 4 2 6 2 1 2 4 5 10 13 20 29 28 24 25 25 26 26 22 23 26 28 30 29 26 24 22 20 20 20 21 21 23 23 23 25 25 23 22 22 21 21 21 20 20 21 21 20 18 16 14 12 11 10 8 6 7 8 8 7 7 7 6 5 5 6 6 5 5 5 5 6 5 5 6 6 7 8 8 7 5 3 3 4 6 5 5 5 5
4 3 2 1 3 4 4 1 2 5 6 4 4 3 2 3 9 9 12 22 25 25 25 25 26 25 22 24 28 30 31 30 27 25 23 21 20 20 21 21 22 24 24 25 24 23 23 22 21 22 22 21 21 22 21 19 17 14 12 10 9 8 6 6 8 10 10 9 8 7 7 7 6 7 7 6 6 7 7 6 6 6 6 7 8 8 8 7 5 4 4 5 6 5 5 6 5
5 3 3 3 3 4 4 2 3 4 6 6 5 6 4 4 7 5 3 8 17 25 24 23 25 24 22 26 29 31 32 31 28 26 23 21 21 21 21 21 23 25 24 25 24 23 23 22 22 23 23 22 22 23 21 19 17 15 13 12 11 9 8 9 10 11 12 11 10 9 9 8 8 8 8 7 7 7 7 6 6 6 6 7 7 8 8 7 7 5 5 6 6 5 6 6 6
4 3 3 4 3 3 3 4 2 1 2 4 5 8 8 6 5 4 4 5 12 22 21 20 25 25 24 27 30 31 32 31 29 27 23 21 22 21 21 22 25 25 24 24 23 23 23 22 24 24 24 22 22 24 23 21 19 17 15 14 13 12 11 11 11 12 11 11 11 10 10 10 9 9 8 7 7 7 7 7 7 6 6 6 7 8 9 8 8 7 6 7 6 6 6 7 5
4 4 5 4 1 2 2 3 4 0 1 2 3 8 8 5 3 3 5 3 10 19 20 21 25 25 25 28 31 31 31 31 30 29 26 24 24 23 22 24 26 26 25 23 23 23 23 23 25 24 23 21 21 24 24 21 19 17 16 15 14 13 12 11 11 12 11 11 11 10 10 10 10 8 7 7 7 7 7 6 7 6 5 6 8 9 10 9 8 7 7 7 6 6 7 7 5
4 3 5 3 2 4 4 4 5 2 1 1 2 8 7 4 4 4 6 4 6 13 17 23 27 26 26 29 32 32 29 30 30 31 30 27 25 25 24 25 26 25 24 22 21 21 22 25 25 24 22 20 21 24 23 21 19 17 15 14 13 12 11 10 10 10 10 10 11 10 10 10 10 9 6 5 5 6 6 6 6 6 6 7 8 9 10 10 9 8 8 7 6 7 7 6 4
3 4 4 3 5 4 2 5 7 2 0 2 3 5 4 3 4 3 9 10 6 5 11 21 29 29 29 30 33 32 30 31 32 32 32 29 27 27 26 26 25 24 23 23 22 21 23 26 26 24 23 21 22 24 23 22 20 17 15 14 13 12 10 9 9 9 9 8 9 10 10 10 10 9 7 5 5 6 6 6 7 6 6 7 8 9 10 10 9 8 8 7 6 6 6 5 4
3 5 4 4 9 5 2 7 8 4 2 2 6 4 1 4 4 3 8 11 8 4 8 16 27 32 33 32 34 34 32 32 34 34 33 31 29 28 27 26 25 25 24 24 23 22 22 23 24 24 23 22 23 25 24 23 21 19 17 15 16 14 12 12 12 11 10 9 10 10 10 10 10 10 8 7 7 6 6 7 7 7 6 6 8 9 10 10 9 8 8 6 5 5 5 5 4
2 5 4 6 9 6 8 11 9 4 1 3 5 5 4 5 6 6 6 6 6 4 4 11 22 28 30 33 35 34 32 33 36 35 34 32 30 30 28 27 26 25 25 24 23 21 19 20 22 24 24 23 24 25 25 24 22 21 20 18 19 18 16 15 14 13 11 10 11 11 10 11 11 10 9 8 8 7 6 7 7 7 7 8 9 9 9 10 9 8 7 6 5 5 5 4 4
2 5 4 6 7 8 11 12 6 2 3 2 2 3 3 4 7 8 6 6 7 5 4 7 15 23 27 32 36 35 32 34 36 36 35 33 32 32 30 28 26 24 25 24 23 21 19 19 21 23 24 23 23 25 26 25 23 22 21 20 20 18 17 16 14 12 10 10 11 12 11 12 12 11 10 9 8 7 7 7 7 8 8 9 9 9 9 9 9 8 7 6 6 5 5 4 4
3 2 9 10 9 9 10 7 3 1 3 3 2 1 1 3 7 8 7 7 8 7 6 6 11 20 25 30 34 35 34 35 37 37 36 35 33 33 31 29 26 24 24 25 24 22 20 20 20 20 23 24 24 25 26 25 24 23 21 21 21 19 16 15 14 12 10 11 13 13 12 12 12 11 11 10 9 8 8 7 7 8 8 8 9 9 9 9 8 7 7 7 6 6 5 4 4
1 5 12 11 8 8 6 3 3 2 3 2 5 3 1 3 4 6 7 9 10 9 8 8 10 17 24 28 31 34 36 37 37 38 38 36 35 33 31 28 26 24 24 25 25 23 21 20 19 19 22 25 24 25 26 24 23 22 20 20 21 19 16 14 14 12 11 13 13 13 13 13 12 12 11 11 10 9 9 8 8 8 8 8 8 8 8 9 8 7 7 7 7 7 5 4 4
6 12 14 11 8 7 4 3 3 2 1 2 5 6 3 2 3 6 7 9 11 9 8 9 12 17 22 27 29 32 36 38 39 39 39 38 36 33 30 28 26 25 24 24 24 23 21 21 21 20 22 25 24 24 25 23 22 21 19 19 19 18 16 15 15 14 13 14 14 13 13 13 12 12 12 11 10 9 9 9 8 8 9 9 9 8 8 9 8 8 8 7 8 8 7 6 5
12 13 12 9 6 4 3 2 2 2 1 1 4 5 2 1 3 6 6 6 8 9 7 9 13 17 21 25 27 30 35 40 40 40 40 39 36 34 32 30 27 25 25 25 25 24 22 21 22 21 22 24 24 24 24 23 22 21 20 18 18 18 17 17 17 17 16 15 15 14 14 13 13 12 13 12 10 10 10 9 9 9 10 10 9 9 8 8 8 8 8 7 8 8 8 8 7
11 6 7 7 3 2 3 3 2 1 2 2 5 3 0 2 4 4 4 5 8 10 10 10 13 18 21 24 27 29 34 40 41 41 41 40 39 37 34 33 30 28 27 27 26 25 24 23 23 23 24 25 24 24 24 23 22 21 20 19 18 18 18 19 19 18 17 17 16 15 13 13 13 13 13 12 11 10 10 10 10 10 10 9 9 9 9 8 7 7 7 7 7 7 8 9 8
7 5 5 5 3 3 2 2 1 1 2 1 4 4 1 4 4 4 6 8 11 13 14 14 16 21 23 24 28 29 32 38 41 41 41 41 40 39 37 35 33 31 29 29 28 27 26 25 24 24 26 26 25 25 24 23 22 21 20 20 19 18 18 19 19 18 17 16 15 15 13 13 13 13 13 13 11 11 11 10 10 10 9 9 8 9 9 8 7 6 8 8 8 7 7 8 9
7 7 4 4 3 2 1 2 1 2 2 1 3 3 2 3 4 6 8 10 14 18 22 23 22 25 26 26 28 29 31 36 41 42 42 42 42 40 39 37 35 33 31 30 28 27 27 26 25 25 26 26 26 26 25 23 22 22 21 19 19 19 19 19 19 18 16 14 13 14 13 13 12 12 12 11 11 11 11 10 10 10 9 9 9 8 9 9 8 7 8 8 7 7 7 8 9
6 3 3 4 5 4 3 4 2 1 1 2 3 2 3 2 2 4 9 15 19 22 24 25 24 26 27 27 28 28 29 34 39 42 43 43 43 42 40 39 37 34 32 31 30 28 27 27 26 26 26 25 26 26 25 24 23 22 22 20 19 19 19 18 18 17 15 14 13 12 12 12 11 10 10 10 10 11 11 11 10 10 10 9 9 9 9 9 8 7 7 7 7 7 7 8 9
4 0 3 2 4 4 3 3 4 4 2 1 2 2 2 3 2 3 4 10 16 19 21 22 23 23 24 25 27 29 29 33 38 42 43 44 44 43 41 40 38 35 34 33 31 29 28 27 27 26 25 24 24 25 25 24 23 22 22 21 20 19 19 18 17 17 16 14 13 13 12 11 10 10 9 10 11 10 10 11 11 10 10 9 9 9 9 9 9 8 8 8 7 7 7 8 8
1 0 2 3 2 5 5 1 1 3 2 1 2 2 2 1 2 3 3 5 8 14 17 19 22 23 22 24 28 30 31 33 37 42 44 44 44 44 43 41 38 37 35 33 31 29 27 26 26 26 24 22 23 24 25 24 23 23 22 22 21 20 19 18 17 16 16 15 14 14 13 12 11 11 11 11 11 10 10 11 11 10 10 9 9 9 9 9 9 9 9 9 9 9 9 8 9
4 2 5 2 2 3 4 2 2 2 1 1 1 3 2 1 1 3 5 6 7 9 12 16 20 23 23 24 28 31 32 33 36 39 42 44 44 44 43 42 39 37 35 33 30 28 27 25 25 25 25 23 23 24 25 24 24 23 23 22 22 21 20 18 16 16 16 15 15 15 14 13 12 12 12 11 11 10 10 11 11 10 9 9 9 9 9 9 9 9 9 9 9 10 10 9 9
2 4 5 3 2 1 2 2 2 1 1 1 1 3 3 4 3 4 8 10 10 9 10 12 16 20 23 25 28 31 32 32 33 35 37 41 43 44 44 43 41 37 35 33 30 28 28 25 24 25 24 22 21 23 25 25 24 24 23 22 21 20 20 18 16 16 16 17 16 15 15 14 12 12 11 11 11 10 10 10 10 10 9 9 9 9 9 9 9 9 8 8 9 10 10 9 9
3 1 2 2 2 3 2 2 3 3 2 1 1 2 3 4 5 7 10 12 11 10 10 10 15 21 23 25 27 29 32 32 31 32 33 37 41 44 45 44 42 39 36 33 31 30 29 26 24 25 24 23 22 22 25 25 25 24 23 22 21 20 20 19 17 16 17 17 16 16 15 14 13 12 11 11 10 9 10 10 10 9 9 9 9 9 9 8 8 9 9 8 9 10 10 9 9
3 2 0 1 0 1 2 1 1 4 3 2 1 1 4 4 4 8 10 10 10 11 10 10 16 21 21 23 25 26 28 30 31 32 32 33 37 42 45 44 42 40 37 35 33 32 30 28 26 26 26 25 24 23 24 26 25 25 24 22 21 20 20 20 19 17 17 17 16 16 15 14 13 13 12 11 10 9 9 9 9 9 9 9 9 9 8 8 8 8 9 9 9 10 10 9 9
3 2 0 2 2 2 2 1 2 2 3 3 3 2 5 4 1 5 8 6 6 10 11 10 16 21 22 23 26 27 27 28 29 31 30 30 33 38 42 44 43 42 39 37 35 34 33 31 28 27 27 27 25 24 24 26 26 25 24 23 21 20 20 20 19 19 18 17 16 16 15 14 14 13 12 11 9 8 8 8 9 9 9 9 9 8 7 8 8 8 8 9 9 10 9 8 9
Wind_Direction
128 107 3 331 338 343 329 330 84 345 77 86 33 59 136 125 109 118 117 120 114 175 185 170 165 171 167 142 140 109 99 142 167 154 149 150 149 152 152 155 152 146 150 150 146 141 143 147 146 146 142 142 144 147 152 153 150 151 149 148 148 149 151 150 150 150 152 149 147 145 140 137 134 133 130 127 124 122 122 123 124 125 124 123 122 120 120 117 116 114 112 108 103 102 102 103 102
180 243 316 324 333 341 328 334 67 25 77 89 347 197 114 38 48 144 156 163 143 146 153 155 156 152 129 126 126 109 81 90 166 130 126 141 150 155 155 155 151 148 153 154 150 146 150 152 149 148 145 148 151 151 155 154 149 150 150 150 149 150 153 153 153 153 154 152 150 148 143 140 138 136 132 129 125 122 121 124 124 124 126 125 122 121 123 121 117 115 113 110 107 106 106 105 102
209 272 304 314 333 344 321 351 92 98 101 114 192 259 77 68 219 193 167 134 122 124 129 134 124 112 118 117 120 119 81 100 134 128 130 146 156 155 155 155 151 150 153 153 149 147 149 151 150 148 151 156 158 158 160 158 154 152 152 153 154 156 158 155 156 157 157 154 151 147 144 139 138 136 133 131 127 123 123 127 125 123 127 128 126 124 125 123 118 117 114 112 110 110 109 106 102
212 271 304 318 336 352 343 66 106 112 119 135 156 211 204 170 154 128 128 123 122 123 122 117 91 92 122 114 104 100 105 134 135 134 140 152 157 152 154 154 151 151 151 146 142 144 149 151 151 150 155 160 163 165 163 161 158 156 157 159 160 162 163 160 160 161 158 153 148 148 144 139 137 135 134 133 129 127 125 128 129 127 127 129 130 127 125 123 121 120 117 115 114 111 108 105 103
216 276 312 339 348 354 35 77 47 100 137 159 136 180 228 157 130 116 119 124 131 130 125 117 83 91 104 88 74 112 135 142 138 140 144 151 156 152 152 151 149 148 146 142 143 146 150 152 153 155 159 167 173 170 167 165 162 161 163 164 165 166 166 167 162 157 155 151 150 150 144 138 136 135 136 136 132 129 128 130 132 132 130 130 133 130 125 123 123 123 120 119 116 111 108 105 103
232 291 315 344 346 349 39 78 80 90 202 158 130 165 170 146 130 111 97 103 114 125 125 118 118 113 90 55 74 116 133 142 141 142 145 149 155 152 149 147 144 142 144 145 147 148 150 155 158 162 164 173 180 173 170 167 167 166 168 168 169 168 166 168 160 154 155 152 152 148 142 139 137 136 137 137 134 131 132 130 131 134 136 135 134 132 128 124 125 124 122 122 118 113 109 105 104
239 295 328 338 327 348 48 101 110 131 236 152 134 114 112 131 126 112 98 92 88 106 117 121 125 112 81 80 91 98 121 142 141 143 146 149 152 150 146 143 142 142 145 146 144 149 155 162 163 166 168 173 176 173 171 168 170 170 172 172 173 170 163 163 156 155 156 150 150 145 141 139 138 140 138 137 136 134 132 129 130 131 136 141 137 132 130 125 124 124 124 123 119 114 110 105 103
236 294 314 340 345 14 61 97 118 185 156 330 337 80 102 136 128 115 109 107 96 106 116 124 121 104 75 107 93 97 128 141 141 143 147 149 151 147 144 143 145 146 146 146 144 151 158 161 163 165 168 169 171 175 175 172 172 171 175 173 173 173 168 161 150 152 152 146 149 144 142 139 139 143 140 137 136 132 128 128 131 132 138 145 141 133 131 129 126 126 125 123 121 115 109 104 99
285 329 310 166 65 37 59 81 130 255 324 2 337 37 98 146 131 118 108 95 111 115 122 136 118 107 116 97 99 124 133 142 141 143 147 148 149 142 142 145 149 150 148 149 149 151 154 157 159 165 172 167 169 176 176 174 171 171 176 173 170 172 171 159 144 147 149 147 149 144 142 141 142 144 140 137 134 129 127 129 133 140 146 148 146 139 135 133 131 130 126 122 120 116 109 104 100
23 4 334 164 67 78 92 68 146 324 335 349 328 26 73 153 126 117 112 104 120 110 120 145 117 116 121 97 101 135 140 143 142 142 146 145 143 138 141 147 151 151 148 148 148 147 150 155 159 167 172 165 167 170 170 169 167 170 175 172 167 167 169 158 143 146 151 149 148 143 142 142 143 142 139 138 133 129 129 130 131 139 148 149 149 145 141 136 133 130 126 123 118 115 110 105 105
6 344 3 52 50 81 111 93 153 44 325 329 10 37 80 135 115 107 109 108 119 112 119 123 111 117 113 91 103 141 146 144 144 141 144 144 139 138 144 149 152 150 145 147 147 147 149 153 158 164 165 165 165 162 163 160 160 167 171 168 164 166 167 160 147 146 152 150 148 145 143 143 142 139 139 138 134 134 133 131 129 131 140 146 149 148 147 140 133 128 127 126 121 118 112 107 108
356 330 22 71 53 32 41 129 149 119 344 350 25 34 118 132 115 115 117 116 122 121 129 124 130 125 104 88 122 146 150 145 145 141 144 142 137 141 149 151 152 150 147 149 148 148 150 154 160 162 162 163 164 161 161 155 156 161 165 167 163 164 166 161 150 146 149 148 148 145 143 143 141 139 140 141 140 140 136 129 127 129 136 140 144 147 148 144 137 131 131 130 124 121 113 109 108
322 327 35 68 68 16 45 142 143 100 353 350 13 41 125 131 126 135 124 125 131 128 152 149 142 128 97 116 135 151 152 149 147 143 143 138 139 146 151 152 152 151 150 152 150 150 151 156 161 163 165 163 165 165 162 159 160 162 163 164 160 160 162 159 150 145 144 143 146 143 142 144 142 142 144 145 143 139 133 126 124 127 129 131 132 133 138 141 139 134 133 130 124 122 116 111 111
220 335 63 66 67 322 54 130 141 125 290 317 1 44 118 125 135 136 126 122 130 137 141 146 139 118 116 128 142 157 156 156 152 149 147 141 145 147 150 151 150 150 151 153 151 154 154 158 164 167 167 159 163 167 162 159 162 163 158 156 155 155 156 153 147 140 138 139 143 143 143 145 144 145 147 146 141 133 127 122 120 118 116 118 119 119 123 129 133 132 130 126 124 124 118 114 111
214 84 77 99 49 66 50 187 148 142 211 346 25 100 108 115 137 134 132 125 97 137 134 143 137 112 147 152 158 162 159 161 158 158 153 146 148 145 151 150 148 151 150 153 153 158 158 160 169 167 161 153 158 160 155 152 155 158 152 151 152 151 150 146 141 137 137 139 140 140 142 143 144 147 147 144 137 129 124 119 113 111 110 113 115 115 118 122 126 128 127 126 125 125 120 115 108
212 191 63 69 27 114 189 204 140 141 208 167 126 125 104 118 138 129 143 136 129 142 140 150 153 143 165 158 156 160 161 164 163 164 158 148 145 143 149 149 150 152 151 155 155 159 158 161 165 157 153 151 154 152 150 149 150 154 150 148 147 147 145 140 137 135 136 136 136 138 142 144 144 145 145 141 135 127 121 115 110 108 110 114 116 117 118 120 124 126 127 127 127 125 120 114 106
201 199 51 82 197 180 184 193 170 161 193 169 162 143 114 123 132 122 145 137 136 153 150 155 167 152 154 152 153 157 161 165 165 167 160 148 146 146 151 153 154 152 152 157 157 159 157 158 157 148 149 150 151 150 151 149 148 151 147 142 143 145 142 138 136 134 133 135 137 138 142 144 143 144 143 138 130 123 118 113 110 110 112 115 116 117 118 119 121 124 126 127 126 122 115 111 108
181 178 169 178 202 187 190 191 158 137 168 176 177 152 132 129 120 126 133 126 132 142 137 136 127 135 147 150 153 157 161 165 169 170 163 153 152 152 154 157 155 154 154 155 157 159 154 155 156 149 147 148 149 149 151 150 149 147 141 138 140 142 140 138 136 135 135 137 139 138 140 142 142 141 137 130 125 121 117 114 114 114 115 115 115 115 116 117 120 123 124 125 124 120 115 115 115
180 157 161 219 217 180 190 172 145 153 176 165 162 154 140 130 132 136 133 122 129 125 127 129 122 130 143 150 155 160 163 169 174 175 169 163 162 160 157 156 155 158 158 156 154 153 150 152 157 154 149 148 147 147 148 148 146 142 140 139 140 141 138 136 135 136 137 137 137 136 137 138 135 131 127 125 124 121 118 118 118 117 117 116 116 117 117 118 120 124 125 126 125 122 121 121 126
195 180 178 243 206 161 205 177 166 189 180 160 154 158 144 128 139 149 143 133 134 133 143 137 130 136 144 152 158 161 167 174 178 179 174 169 169 166 161 155 156 159 158 154 149 147 148 152 157 155 151 150 147 147 147 144 141 140 141 141 141 140 137 135 135 135 135 134 134 132 131 129 126 125 125 126 125 122 120 120 120 120 121 120 120 121 121 120 121 124 125 125 127 128 129 128 133
189 183 198 232 171 141 204 178 173 188 180 169 152 151 148 136 144 156 144 132 147 156 157 151 144 146 149 155 160 165 172 176 179 182 177 173 170 167 163 155 154 158 155 150 146 144 147 151 154 153 152 153 149 147 145 141 140 139 139 140 139 137 135 135 135 134 133 132 131 129 127 126 125 126 127 127 125 122 120 121 123 124 126 127 128 128 128 127 126 126 126 127 132 136 138 135 136
172 202 193 168 170 148 169 168 168 172 172 169 149 148 157 147 141 157 153 146 174 165 162 160 155 155 156 159 163 169 174 177 182 181 178 175 169 167 163 156 155 157 154 148 145 144 146 151 153 152 152 152 148 145 142 140 139 138 138 138 137 135 133 133 133 133 131 130 128 127 127 126 128 129 128 126 122 120 119 121 124 127 130 132 133 133 133 134 134 133 132 133 136 143 146 144 141
204 246 159 157 179 128 154 162 161 166 166 166 160 154 152 142 130 159 164 164 166 165 164 162 159 159 161 162 166 172 177 181 182 181 181 176 170 169 163 159 159 158 153 148 146 145 148 153 154 151 149 149 147 145 141 140 139 139 139 137 136 133 131 131 131 132 130 129 129 129 128 127 128 128 126 123 121 120 121 124 128 130 132 136 139 140 140 139 138 133 128 127 139 156 156 150 143
208 259 121 168 174 121 158 164 166 172 168 170 166 146 138 135 139 161 171 167 163 163 163 162 159 160 162 165 169 176 181 181 182 182 183 179 174 170 164 160 160 158 154 151 149 149 151 153 153 149 148 149 147 145 142 140 140 140 138 135 135 134 133 132 131 131 129 129 130 130 128 127 127 127 126 124 125 126 128 132 133 135 136 140 144 146 145 142 138 128 118 122 140 152 153 147 135
226 103 115 168 145 125 162 164 167 169 162 167 155 112 71 12 145 155 163 163 163 161 160 160 158 160 164 168 171 176 180 180 181 181 180 181 176 170 165 162 161 160 157 154 152 151 152 151 152 149 148 149 147 146 144 142 142 141 139 137 137 136 133 130 129 129 128 127 127 129 128 127 129 130 131 130 131 132 133 135 135 138 141 145 148 149 147 143 140 135 127 125 125 132 134 135 130
191 109 117 130 80 114 159 161 167 163 146 153 142 100 96 304 342 141 156 161 162 158 157 160 160 161 165 169 172 174 179 181 180 179 179 180 175 170 169 167 164 161 158 155 152 150 150 151 151 149 149 150 150 149 147 146 145 143 142 140 137 134 131 128 129 129 129 127 126 129 129 130 133 135 138 138 137 135 133 133 132 135 142 150 153 153 152 148 147 144 134 114 103 132 132 132 135
124 109 103 93 73 74 135 147 159 156 130 149 151 107 135 214 320 125 159 159 160 157 156 161 162 164 167 170 173 174 180 182 180 179 179 178 175 171 169 169 166 162 160 155 151 151 150 150 151 152 153 153 153 152 150 147 144 144 144 141 138 135 133 131 130 130 130 130 129 130 130 132 135 139 144 144 141 136 132 131 131 134 140 149 154 157 159 159 161 153 135 111 105 170 151 144 145
120 112 93 66 65 46 51 118 150 155 129 139 139 95 90 180 311 197 161 158 160 159 157 161 163 165 169 172 175 178 183 185 182 181 180 176 173 172 170 169 165 163 163 156 152 152 150 151 152 153 156 155 155 153 150 145 142 143 143 143 142 139 137 136 134 132 133 134 134 134 134 135 138 143 148 147 145 140 137 136 133 136 138 146 154 161 166 170 173 161 142 150 165 213 147 135 140
121 111 99 76 80 41 347 317 167 157 142 134 129 100 94 193 305 187 162 159 160 160 160 164 165 166 171 174 177 181 186 188 184 183 180 175 173 174 171 167 166 164 163 159 154 152 151 152 153 153 155 156 156 155 152 148 145 143 143 145 146 144 142 140 138 136 138 140 140 141 141 142 144 148 150 148 144 135 133 131 128 133 135 144 157 166 173 178 179 165 153 144 102 243 130 120 125
122 86 104 121 110 156 286 281 186 149 138 147 139 142 186 200 267 187 162 161 159 158 162 166 169 172 174 175 177 182 189 190 186 183 177 174 174 174 170 167 167 165 163 163 158 155 155 153 153 153 154 156 157 158 156 152 150 148 148 150 150 147 145 144 143 143 144 145 147 149 147 147 150 153 153 147 136 117 115 118 115 119 127 141 155 167 177 182 181 166 142 77 53 197 159 123 120
111 63 80 128 153 192 297 280 161 148 151 148 141 181 174 184 226 189 163 163 159 158 164 168 172 177 180 179 178 183 190 191 186 182 177 174 172 170 170 167 168 169 167 166 162 158 158 156 155 154 154 156 157 158 156 153 151 152 152 153 153 151 151 152 154 153 151 149 150 154 153 152 154 156 157 149 130 110 106 119 119 119 130 141 150 163 172 175 174 158 114 68 129 155 136 121 126
59 133 268 19 11 152 30 31 123 142 151 130 106 174 166 186 208 192 169 167 161 161 167 170 176 181 183 183 181 185 189 190 186 180 175 173 170 168 170 168 169 173 171 168 165 163 163 161 158 157 157 158 159 159 157 155 154 156 158 157 156 155 158 161 163 162 158 155 155 160 163 160 159 161 164 156 137 130 134 145 147 154 164 156 154 160 165 169 167 146 112 130 153 150 134 122 128
349 126 161 123 128 181 164 18 345 99 128 119 317 154 142 189 209 190 170 169 164 163 170 174 181 184 185 183 183 186 187 187 186 180 173 170 169 168 170 171 169 171 171 169 168 167 166 165 162 161 162 161 161 161 160 160 161 163 163 161 159 159 162 167 172 169 164 164 166 169 171 170 170 166 164 159 148 150 156 167 179 176 169 159 158 163 167 172 166 142 128 151 162 160 155 140 126
304 87 104 159 148 171 168 33 324 145 135 157 19 120 137 171 198 184 170 172 166 166 174 178 186 187 185 184 183 185 185 185 186 182 172 168 169 169 171 172 169 169 170 169 168 167 166 166 166 163 163 162 162 161 161 162 163 165 165 163 161 160 164 176 192 193 185 184 187 189 190 195 193 175 166 167 163 166 167 174 181 172 164 160 162 169 174 178 169 148 150 162 165 158 159 159 141
205 180 152 147 149 182 192 150 162 156 157 161 119 135 177 159 178 174 167 174 171 173 179 181 188 190 182 181 182 182 183 184 186 183 174 171 172 171 173 173 171 170 170 170 170 167 166 167 169 166 163 163 163 162 162 164 165 167 169 170 169 169 178 192 201 203 203 208 213 214 215 217 208 183 175 177 175 174 172 175 176 169 167 167 170 176 180 182 173 162 163 163 162 156 158 163 157
184 172 132 131 145 193 197 137 131 159 161 157 149 161 177 177 174 148 140 197 186 178 183 184 188 190 180 177 181 179 181 185 186 182 176 173 175 174 175 175 174 173 172 173 173 170 168 167 169 170 167 165 164 164 166 168 171 173 175 178 176 173 179 189 193 196 201 210 218 222 218 214 202 185 182 185 182 179 180 181 180 177 173 172 177 181 185 183 176 176 174 161 157 164 175 174 175
138 105 88 118 142 182 178 139 122 283 146 146 171 161 157 170 167 130 138 248 220 186 182 185 186 189 178 174 179 179 182 186 186 183 180 176 177 176 176 177 176 176 176 177 178 175 171 169 169 171 171 168 167 169 172 173 174 176 178 178 173 168 169 178 186 190 196 204 213 218 213 208 202 192 186 184 184 184 186 190 191 189 181 179 182 184 189 186 182 185 177 163 158 166 175 172 174
132 118 116 115 161 153 114 141 150 44 61 81 157 149 140 140 116 126 148 270 236 193 183 183 184 186 179 175 179 180 183 185 184 185 185 181 179 178 178 179 178 177 178 180 182 178 174 173 172 171 172 171 170 172 175 177 178 176 176 175 171 170 173 179 184 185 192 202 208 211 209 209 211 205 192 185 187 185 184 190 192 189 181 184 184 186 194 193 190 189 178 171 170 169 167 158 155
120 119 136 137 166 133 90 135 152 139 99 68 165 148 128 99 96 149 195 258 234 197 193 186 183 183 178 176 178 180 182 183 182 185 187 184 182 181 180 181 181 180 179 180 181 180 179 179 176 174 176 176 173 174 177 181 183 183 181 180 178 179 181 179 180 182 188 199 206 208 208 210 212 210 204 199 197 192 187 190 193 190 184 182 182 187 195 197 197 192 182 180 178 174 173 174 175
139 141 146 149 169 164 124 157 154 133 91 130 161 147 115 94 81 143 214 250 259 208 204 191 185 184 182 180 179 180 182 181 182 185 186 185 184 184 182 182 184 184 184 182 181 183 184 184 182 180 180 181 179 178 181 184 186 191 193 194 195 194 192 187 190 194 195 200 206 208 208 208 210 210 216 219 212 203 198 197 197 198 194 183 181 188 193 198 201 195 190 190 185 180 183 192 194
203 175 157 162 184 190 99 144 143 103 46 124 139 136 150 161 140 165 217 252 270 230 209 196 190 187 184 183 182 182 184 183 183 184 186 186 185 187 186 185 186 188 189 186 186 188 188 189 189 187 184 185 185 184 184 185 188 193 196 201 202 203 205 204 206 208 206 206 209 209 207 208 209 212 221 222 214 207 200 199 196 194 196 190 186 190 193 200 204 199 198 199 193 184 181 188 192
210 215 198 173 178 153 114 139 141 109 171 199 165 172 199 173 169 191 205 241 255 243 229 204 195 191 184 181 182 185 187 186 186 187 187 188 188 188 188 188 189 192 194 191 192 195 194 194 194 192 190 188 190 189 186 187 191 195 198 200 200 203 210 212 212 213 211 209 206 205 205 206 208 213 219 215 211 213 204 199 197 192 194 192 190 191 193 202 205 199 201 203 197 188 182 183 190
203 234 179 135 133 126 137 150 147 134 169 183 201 190 184 174 189 201 198 217 231 240 260 221 200 195 188 183 184 187 187 186 187 189 189 190 190 190 191 192 194 196 197 196 197 200 200 196 193 194 194 191 191 191 190 191 193 196 201 204 203 208 214 215 216 216 217 214 204 200 201 204 206 208 211 211 211 214 206 199 202 201 197 194 191 189 192 200 202 197 198 198 195 193 191 194 202
222 198 122 118 120 132 149 147 116 101 101 110 196 190 124 204 200 192 194 212 227 234 247 242 210 200 195 190 188 188 188 186 186 188 189 191 191 193 194 195 198 200 199 199 200 204 204 196 191 195 196 194 193 194 195 197 198 198 201 205 208 213 217 220 220 217 218 214 203 198 200 203 206 204 204 208 209 206 203 203 206 206 203 200 195 193 195 198 197 197 201 201 201 202 199 204 215
193 117 105 108 111 117 130 104 56 59 83 148 210 187 148 242 189 167 188 206 218 223 224 231 222 206 198 196 192 189 190 189 188 189 191 192 194 196 197 198 200 201 201 203 203 206 207 199 197 201 200 198 196 197 198 201 204 206 205 206 208 211 215 220 221 215 209 205 201 200 201 203 206 205 202 207 210 204 202 203 205 206 208 210 208 204 205 202 200 204 209 212 215 215 215 220 228
124 110 94 87 87 85 88 82 65 47 23 220 215 196 189 254 169 167 194 204 209 214 215 224 227 213 201 199 197 190 189 189 190 192 193 195 196 198 200 200 201 203 204 206 206 207 208 204 204 209 207 202 200 199 201 205 210 212 212 210 210 211 212 216 217 210 203 201 201 202 204 205 207 209 207 208 209 206 205 204 203 207 212 218 220 215 211 210 210 211 214 219 220 219 223 229 237
121 105 92 86 76 68 73 56 79 90 314 221 215 218 207 246 195 185 197 197 196 200 206 216 222 216 203 200 200 193 189 189 190 193 194 197 199 199 200 201 202 204 205 207 208 209 210 208 210 215 212 206 203 202 203 208 211 212 215 216 216 215 214 215 214 209 204 201 202 203 205 207 209 212 210 208 208 209 213 211 209 214 215 218 222 219 215 218 220 218 219 221 217 217 222 228 235
119 106 110 106 55 21 49 9 29 149 255 184 189 209 152 231 223 191 185 191 195 199 205 205 206 210 203 199 203 199 192 190 190 192 194 195 197 197 199 201 202 203 204 207 209 211 212 212 214 216 213 208 205 204 205 209 211 211 214 218 220 220 219 218 216 213 209 204 203 204 206 210 211 210 207 207 209 213 218 218 217 222 221 221 224 225 224 228 233 229 225 224 219 220 224 226 230
124 132 121 99 46 15 30 337 329 241 262 164 155 164 183 252 246 211 200 203 203 202 205 205 202 203 201 199 203 202 195 192 191 192 194 195 195 197 199 201 202 203 204 207 210 213 214 215 216 215 211 209 208 208 207 209 211 211 213 216 219 220 220 220 219 217 214 208 205 205 208 212 212 211 208 208 211 216 221 222 223 227 228 228 231 233 231 233 241 236 229 228 225 229 234 231 231
151 154 141 115 109 92 115 242 272 266 260 31 99 157 203 284 263 221 212 215 213 209 207 206 205 204 200 199 202 203 198 194 193 194 194 195 196 198 200 201 202 204 206 207 210 213 215 216 216 213 211 210 210 211 210 210 212 212 213 215 217 216 217 220 220 220 218 214 211 210 212 214 216 216 212 210 214 218 223 225 224 227 229 230 233 236 234 236 240 235 233 233 231 236 244 244 242
181 186 134 136 149 150 168 194 196 208 218 84 99 174 196 203 264 232 214 216 214 210 211 209 208 208 204 202 203 203 199 196 195 196 196 198 199 200 201 202 203 205 206 208 211 212 213 215 214 211 210 211 211 211 211 211 212 214 214 212 213 215 217 220 222 221 221 219 218 217 215 215 220 223 218 216 219 221 227 228 226 226 224 226 234 238 238 240 239 235 237 237 236 242 247 250 253
228 251 94 157 187 150 135 172 163 140 129 137 162 236 225 194 278 310 237 224 208 202 208 209 209 210 206 205 206 204 199 196 197 198 198 199 201 202 203 203 204 205 206 209 211 212 211 211 211 208 208 211 214 213 212 211 213 215 215 212 214 217 219 221 221 220 219 220 224 224 220 220 222 225 223 221 221 223 227 229 228 227 222 224 236 238 237 238 238 240 244 238 235 245 247 248 256
213 186 182 228 194 123 113 91 53 94 110 190 185 257 287 225 277 267 225 233 211 200 203 205 208 208 204 204 205 204 200 196 198 200 200 201 201 203 204 205 205 205 206 208 211 212 210 209 208 207 209 213 216 216 214 212 212 214 215 215 216 219 220 222 222 220 218 220 226 226 225 225 223 223 222 221 223 223 222 225 228 228 223 228 238 238 235 236 238 243 247 240 235 243 247 249 256
111 199 223 218 30 68 102 99 28 63 199 232 199 239 232 184 267 229 204 214 216 208 204 204 206 205 203 203 203 205 203 198 199 202 202 202 202 203 205 206 207 207 207 209 211 212 210 209 208 207 209 213 216 218 217 214 213 213 215 215 217 218 219 222 223 224 223 226 228 225 223 225 223 221 221 223 224 222 220 223 225 227 227 233 238 236 231 233 237 240 244 246 244 247 252 254 257
160 188 196 127 77 351 84 109 124 147 229 249 246 259 227 206 216 194 197 209 209 205 205 205 206 204 203 203 202 204 204 201 199 202 204 205 204 205 206 208 209 209 210 210 211 212 211 210 211 210 211 214 216 219 219 217 214 214 215 216 218 219 218 219 222 224 225 228 228 222 221 223 222 220 222 223 223 222 226 227 226 227 231 236 238 234 231 232 234 236 240 248 250 251 254 256 255
330 102 157 123 142 173 158 154 154 147 178 231 238 274 253 228 207 179 188 206 202 196 201 202 206 207 205 204 204 203 204 204 201 201 205 208 208 208 208 209 210 210 211 212 211 211 211 211 213 213 213 215 218 219 220 219 216 215 216 217 219 221 220 219 221 222 223 226 225 221 220 221 220 220 220 220 224 229 232 234 233 232 233 236 237 235 236 238 239 239 237 241 245 248 254 258 257
328 43 237 290 331 124 142 183 160 127 146 186 167 262 266 254 200 173 180 197 194 188 195 198 199 200 199 201 204 205 205 205 206 204 206 210 212 211 210 211 212 212 211 213 213 212 213 214 215 215 215 216 218 219 220 219 217 216 216 216 217 220 221 221 222 223 223 222 222 222 221 220 218 220 221 223 230 234 233 235 239 238 236 237 237 237 239 243 247 246 241 240 243 247 253 259 259
187 118 22 257 211 134 117 223 261 114 131 172 159 198 268 284 257 173 173 187 186 175 177 179 180 182 187 196 203 207 207 206 207 207 205 206 208 209 210 210 212 212 211 213 215 215 214 215 216 217 217 218 220 221 219 218 218 217 216 216 217 219 221 223 222 222 222 220 221 222 221 221 219 219 224 229 232 231 230 235 240 240 240 237 234 232 233 241 248 248 245 244 246 249 251 252 255